Location: Molveno
(46.1500°N, 10.9667°E)
Time: 07:11:40
(UTC+00:00)

SL-16 R/B - Pass Details

Date: 05 July 2020
Orbit: 839 x 850 km, 71.0° (Epoch: 05 August)

Event Time Altitude Azimuth Distance (km) Brightness Sun altitude
Exits shadow 21:19:02 13° 106° (ESE) 2,228 4.0 -15.8°
Maximum altitude 21:19:52 14° 97° (E) 2,203 4.0 -15.9°
Drops below altitude 10° 21:22:37 10° 67° (ENE) 2,474 4.6 -16.1°
Sets 21:26:19 0° 43° (NE) 3,418 5.6 -16.4°
